MST,Max TemperatureF,Mean TemperatureF,Min TemperatureF,Max Dew PointF,MeanDew PointF,Min DewpointF,Max Humidity, Mean Humidity, Min Humidity, Max Sea Level PressureIn, Mean Sea Level PressureIn, Min Sea Level PressureIn, Max VisibilityMiles, Mean VisibilityMiles, Min VisibilityMiles, Max Wind SpeedMPH, Mean Wind SpeedMPH, Max Gust SpeedMPH,PrecipitationIn, CloudCover, Events, WindDirDegrees
2012-11-1,51,41,31,35,32,25,96,69,42,30.03,29.87,29.77,,,,15,5,26,0.09,,,163
2012-11-2,46,36,26,33,29,25,100,77,53,30.19,30.12,30.03,,,,7,2,9,0.00,,,233
2012-11-3,49,35,21,34,27,22,96,71,46,30.27,30.21,30.15,,,,6,1,8,0.00,,,184
2012-11-4,54,41,28,35,31,27,100,73,46,30.46,30.34,30.24,,,,7,2,9,0.00,,,131
2012-11-5,59,43,26,37,30,25,100,70,40,30.49,30.40,30.27,,,,8,2,13,0.00,,,42
2012-11-6,59,41,22,34,28,22,100,67,33,30.40,30.24,30.09,,,,9,2,12,0.00,,,137
2012-11-7,54,41,27,37,30,24,92,69,46,30.03,29.91,29.75,,,,15,3,23,0.01,,,82
2012-11-8,41,36,30,36,32,27,100,90,79,29.73,29.56,29.47,,,,17,4,24,0.38,,,157
2012-11-9,30,22,13,26,21,12,92,84,75,29.65,29.57,29.49,,,,8,2,12,0.03,,,342
2012-11-10,24,14,3,16,10,1,92,79,65,30.04,29.83,29.64,,,,10,2,14,0.00,,,304
2012-11-11,25,10,-6,11,2,-9,95,75,55,30.49,30.32,30.08,,,,6,1,8,0.00,,,225
2012-11-12,30,17,4,24,15,4,92,75,58,30.48,30.38,30.29,,,,5,0,6,0.00,,,180
2012-11-13,36,31,25,29,26,23,92,81,70,30.29,30.22,30.14,,,,5,0,6,0.01,,,-1
2012-11-14,40,28,15,28,24,12,92,72,52,30.31,30.18,30.10,,,,6,2,,0.00,,,132
2012-11-15,35,22,8,22,15,6,92,74,56,30.41,30.28,30.16,,,,6,1,10,0.00,,,343
2012-11-16,34,27,19,30,24,18,100,92,84,30.15,30.07,30.01,,,,5,1,6,0.03,,,337
2012-11-17,42,34,25,34,29,24,100,83,65,30.04,29.88,29.72,,,,17,5,25,0.09,,,159
2012-11-18,39,31,23,33,23,11,92,65,38,30.05,29.88,29.65,,,,16,4,26,0.17,,,133
2012-11-19,41,32,22,32,26,20,96,78,59,30.14,30.07,29.99,,,,20,8,28,0.00,,,140
2012-11-20,41,38,35,35,33,28,92,76,60,30.01,29.93,29.80,,,,17,12,29,0.21,,,155
2012-11-21,42,31,20,34,27,17,96,80,64,29.94,29.78,29.68,,,,18,7,31,0.56,,,99
2012-11-22,33,21,8,18,13,6,92,68,43,,,,,,,10,3,16,0.00,,,214
2012-11-23,33,19,5,23,14,3,91,75,58,30.45,30.37,30.30,,,,6,1,8,0.00,,,180
2012-11-24,39,31,22,35,29,20,100,88,75,30.26,30.12,29.94,,,,12,1,17,0.29,,,340
2012-11-25,35,21,7,32,23,7,100,82,64,30.22,30.01,29.90,,,,9,2,13,0.10,,,334
2012-11-26,26,16,5,18,11,4,92,80,68,30.38,30.31,30.21,,,,5,0,7,0.00,,,187
2012-11-27,29,20,11,19,12,7,96,82,68,30.43,30.33,30.25,,,,5,0,6,0.00,,,340
2012-11-28,35,24,13,31,20,11,92,83,74,30.29,30.12,29.92,,,,13,2,18,0.00,,,152
2012-11-29,42,35,27,32,29,25,100,78,55,30.02,29.91,29.82,,,,15,7,24,0.02,,,147
2012-11-30,37,35,33,35,33,31,96,89,82,29.79,29.69,29.64,,,,17,9,28,0.46,,,149